Location: Unspecified
(0.0000°N, 0.0000°E)
Time: 11:01:19
(UTC+00:00)

deb r/b Ablestar - Visible Passes

Search period start: 09 December 2025 00:00
Search period end: 19 December 2025 00:00
Orbit: 800 x 897 km, 66.9° (Epoch: 08 December)

Date Brightness Start Highest point End Pass type
(mag) Time Alt. Az. Time Alt. Az. Time Alt. Az.
09 Dec ? 04:34:53 10° SSW 04:40:50 69° ESE 04:46:44 10° NNE visible
10 Dec ? 04:21:44 10° SSW 04:27:41 70° ESE 04:33:35 10° NNE visible
11 Dec ? 04:08:34 10° SSW 04:14:32 72° ESE 04:20:26 10° NNE visible
12 Dec ? 03:55:25 10° SSW 04:01:22 73° ESE 04:07:18 10° NNE visible
13 Dec ? 03:42:15 10° SSW 03:48:13 74° ESE 03:54:08 10° NNE visible
14 Dec ? 03:29:05 10° SSW 03:42:20 - NNE 03:32:23 35° S visible
